DLR-TUBSAT

Last updated on Tue Sep 16 2025 00:02:29 GMT+0000 (Coordinated Universal Time)

1 25757U 99029B 25258.54910508 .00000123 00000+0 41993-4 0 9994 2 25757 98.6467 240.3779 0015374 104.2034 256.0870 14.52303433393386
UTC large
Height (km)
Speed (km/s)
/
Latitude / Longitude
Inclination (degrees)
Orbital Period (minutes)
Azimuth
Elevation
Range (km)
Doppler Factor

Next 0 passes for location: London (51.5072 / 0.1276)

Sorry there are no passes over London.